Weather History for KPOU - March, 2013

Change the Weather History Date:

Friday, March 1, 2013

  Actual Average Record
Temperature  
Mean Temperature 39 °F 32 °F  
Max Temperature 46 °F 43 °F 65 °F (1972)
Min Temperature 31 °F 21 °F 0 °F (2015)
Degree Days  
Heating Degree Days 26 33  
Month to date heating degree days 26 33  
Since 1 July heating degree days 4147 4604  
Cooling Degree Days 0 0  
Month to date cooling degree days 0 0  
Year to date cooling degree days 0 0  
Moisture  
Dew Point 30 °F    
Average Humidity 77    
Maximum Humidity 100    
Minimum Humidity 53    
Precipitation  
Precipitation T in 0.11 in 0.90 in (1987)
Month to date precipitation T 0.11  
Year to date precipitation 3.66 5.85  
Sea Level Pressure  
Sea Level Pressure 29.66 in    
Wind  
Wind Speed 4 mph (NW)    
Max Wind Speed 15 mph    
Max Gust Speed 21 mph    
Visibility 6 miles    
Events Fog    
T = Trace of Precipitation, MM = Missing Value Source: NWS Daily Summary

Daily Weather History Graph

Daily Weather History Graph

Search for Another Location

Airport or City:

Trip Planner

Search our weather history database for the weather conditions in past years. The results will help you decide how hot, cold, wet, or windy it might be!

Date:

Astronomy

Mar. 01, 2013 Rise Set
Actual Time 6:29 AM EST 5:46 PM EST
Civil Twilight 6:02 AM EST 6:14 PM EST
Nautical Twilight 5:29 AM EST 6:46 PM EST
Astronomical Twilight 4:57 AM EST 7:18 PM EST
Moon 10:21 PM EST (3/1) 8:10 AM EST (3/1)
Length of Visible Light 12h 12m
Length of Day
11h 16m
Waning Gibbous, 83% of the Moon is Illuminated
Mar 1
Waning Gibbous
Mar 4
Last Quarter
Mar 11
New
Mar 19
First Quarter
Mar 27
Full

Hourly Weather History & Observations

Time (EST) Temp. Windchill Dew Point Humidity Pressure Visibility Wind Dir Wind Speed Gust Speed Precip Events Conditions
12:21 AM 35.6 °F - 35.6 °F 100% 29.60 in 2.0 mi Calm Calm - N/A   Overcast
12:28 AM 35.6 °F - 33.8 °F 93% 29.60 in 1.0 mi Calm Calm - N/A   Overcast
12:39 AM 35.6 °F - 33.8 °F 93% 29.60 in 0.5 mi Calm Calm - N/A Fog Fog
12:45 AM 35.6 °F - 33.8 °F 93% 29.60 in 0.2 mi Calm Calm - N/A Fog Fog
12:53 AM 34.0 °F - 34.0 °F 100% 29.60 in 0.2 mi Calm Calm - N/A Fog Fog
1:01 AM 33.8 °F - 33.8 °F 100% 29.60 in 0.2 mi Calm Calm - N/A Fog Fog
1:53 AM 30.9 °F - 30.9 °F 100% 29.60 in 0.2 mi Calm Calm - N/A Fog Light Freezing Fog
2:53 AM 30.9 °F - 30.9 °F 100% 29.60 in 0.2 mi Calm Calm - N/A Fog Light Freezing Fog
3:53 AM 32.0 °F - 32.0 °F 100% 29.61 in 0.2 mi Calm Calm - N/A Fog Fog
4:53 AM 32.0 °F - 30.9 °F 96% 29.63 in 0.5 mi Calm Calm - N/A Fog Fog
5:03 AM 32.0 °F - 32.0 °F 100% 29.64 in 2.0 mi Calm Calm - N/A   Overcast
5:18 AM 32.0 °F - 30.2 °F 93% 29.64 in 1.5 mi Calm Calm - N/A   Overcast
5:26 AM 32.0 °F - 32.0 °F 100% 29.64 in 3.0 mi Calm Calm - N/A   Overcast
5:53 AM 32.0 °F - 30.9 °F 96% 29.64 in 4.0 mi Calm Calm - N/A   Overcast
6:53 AM 32.0 °F - 32.0 °F 100% 29.65 in 6.0 mi Calm Calm - N/A   Overcast
7:53 AM 33.1 °F - 32.0 °F 96% 29.67 in 4.0 mi Calm Calm - N/A   Overcast
9:53 AM 37.9 °F 34.4 °F 33.1 °F 83% 29.68 in 10.0 mi WNW 4.6 mph - N/A   Overcast
10:53 AM 41.0 °F 35.8 °F 32.0 °F 70% 29.68 in 10.0 mi NW 8.1 mph - N/A   Overcast
11:22 AM 41.0 °F 37.1 °F 30.2 °F 65% 29.69 in 10.0 mi WNW 5.8 mph - N/A   Overcast
11:41 AM 42.8 °F 37.0 °F 30.2 °F 61% 29.69 in 10.0 mi NW 10.4 mph - N/A   Mostly Cloudy
11:53 AM 42.1 °F 38.4 °F 30.0 °F 62% 29.68 in 10.0 mi Variable 5.8 mph - N/A   Mostly Cloudy
12:53 PM 45.0 °F 39.7 °F 28.0 °F 52% 29.66 in 10.0 mi NW 10.4 mph 17.3 mph N/A   Mostly Cloudy
1:53 PM 42.1 °F 38.4 °F 27.0 °F 55% 29.67 in 10.0 mi NW 5.8 mph - N/A   Overcast
2:53 PM 42.1 °F 37.7 °F 26.1 °F 53% 29.67 in 10.0 mi NNW 6.9 mph - N/A   Overcast
3:53 PM 41.0 °F 36.4 °F 27.0 °F 57% 29.68 in 10.0 mi North 6.9 mph - N/A   Overcast
4:53 PM 41.0 °F 37.1 °F 26.1 °F 55% 29.69 in 10.0 mi North 5.8 mph - N/A   Overcast
5:53 PM 39.9 °F 35.1 °F 28.0 °F 63% 29.71 in 10.0 mi North 6.9 mph - N/A   Overcast
6:53 PM 39.0 °F 35.7 °F 28.9 °F 67% 29.73 in 10.0 mi North 4.6 mph - N/A   Overcast
7:53 PM 37.9 °F - 28.9 °F 70% 29.74 in 10.0 mi Calm Calm - N/A   Overcast
8:53 PM 37.9 °F 30.5 °F 25.0 °F 60% 29.75 in 10.0 mi NW 11.5 mph - N/A   Overcast
9:53 PM 37.0 °F 28.9 °F 24.1 °F 59% 29.76 in 10.0 mi NW 12.7 mph - N/A   Overcast
10:53 PM 36.0 °F 29.0 °F 23.0 °F 59% 29.77 in 10.0 mi NW 9.2 mph - N/A   Overcast
11:53 PM 35.1 °F 29.3 °F 23.0 °F 61% 29.76 in 10.0 mi NW 6.9 mph - N/A   Overcast